M0PSX-13 Weather Reports


time (UTC)temp
C
wind
direction
speed
KPH
gust
KPH
rain 1hr
cm
rain 24hr
cm
rain mn
cm
humidity
%
barometer
mb
20260507225008 10 1 0.0 3.2 0.00 0.00 0.00 83 1016.4
20260507224004 10 1 0.0 3.2 0.00 0.00 0.00 82 1016.3
20260507223004 11 0 0.0 0.0 0.00 0.00 0.00 82 1016.3
20260507222005 11 0 0.0 0.0 0.00 0.00 0.00 82 1016.4
20260507221005 11 0 0.0 0.0 0.00 0.00 0.00 82 1016.4
20260507220005 11 22 0.0 3.2 0.00 0.00 0.00 82 1016.3
20260507215005 11 1 0.0 3.2 0.00 0.00 0.00 82 1016.3
20260507214005 11 0 0.0 0.0 0.00 0.00 0.00 82 1016.3
20260507213005 11 1 0.0 3.2 0.00 0.00 0.00 82 1016.3
20260507212004 11 1 0.0 3.2 0.00 0.00 0.00 82 1016.5
20260507211004 11 352 0.0 3.2 0.00 0.00 0.00 82 1016.4
20260507204004 11 359 0.0 3.2 0.00 0.00 0.00 81 1016.2
20260507203004 11 349 0.0 3.2 0.00 0.00 0.00 81 1016.0
20260507201005 11 349 0.0 3.2 0.00 0.00 0.00 81 1016.0
20260507200005 11 350 1.6 3.2 0.00 0.00 0.00 81 1015.9
20260507195005 11 346 0.0 6.4 0.00 0.00 0.00 81 1015.7
20260507194004 11 356 1.6 3.2 0.00 0.00 0.00 81 1015.7
20260507193005 11 357 0.0 3.2 0.00 0.00 0.00 81 1015.7
20260507192005 11 350 1.6 3.2 0.00 0.00 0.00 81 1015.6
20260507191004 11 342 0.0 3.2 0.00 0.00 0.00 81 1015.8
20260507184005 11 340 0.0 6.4 0.00 0.00 0.00 80 1015.4
20260507183004 11 341 3.2 3.2 0.00 0.00 0.00 80 1015.5
20260507182011 11 354 0.0 3.2 0.00 0.00 0.00 80 1015.3
20260507181005 11 344 1.6 3.2 0.00 0.00 0.00 80 1015.5
20260507180005 11 351 0.0 3.2 0.00 0.00 0.00 80 1015.4
20260507175005 11 342 1.6 6.4 0.00 0.00 0.00 80 1015.5
20260507174005 11 337 3.2 9.7 0.00 0.00 0.00 80 1015.6
20260507173005 11 337 3.2 9.7 0.00 0.00 0.00 79 1015.3
20260507172005 11 342 3.2 6.4 0.00 0.00 0.00 78 1015.2
20260507171005 11 341 3.2 6.4 0.00 0.00 0.00 78 1015.4
20260507170005 11 349 3.2 6.4 0.00 0.00 0.00 78 1015.3
20260507165005 11 352 1.6 6.4 0.00 0.00 0.00 78 1015.4
20260507163004 11 354 1.6 3.2 0.00 0.00 0.00 76 1015.7
20260507161004 11 358 3.2 6.4 0.00 0.00 0.00 75 1015.4
20260507160004 11 357 1.6 6.4 0.00 0.00 0.00 75 1015.5
20260507155004 11 356 0.0 3.2 0.00 0.00 0.00 75 1015.5
20260507154005 11 355 1.6 6.4 0.00 0.00 0.00 74 1015.5
20260507151004 12 352 0.0 3.2 0.00 0.00 0.00 73 1015.6
20260507150005 12 351 1.6 6.4 0.00 0.00 0.00 74 1015.5
20260507145005 12 359 1.6 3.2 0.00 0.00 0.00 74 1015.7
20260507144005 12 352 1.6 3.2 0.00 0.00 0.00 74 1015.8
20260507143005 11 355 1.6 3.2 0.00 0.00 0.00 73 1015.7
20260507142005 12 354 3.2 6.4 0.00 0.00 0.00 72 1015.7
20260507141006 12 349 1.6 6.4 0.00 0.00 0.00 71 1015.7
20260507140005 12 359 1.6 3.2 0.00 0.00 0.00 70 1015.8
20260507135004 12 348 0.0 6.4 0.00 0.00 0.00 71 1015.7
20260507134005 12 341 1.6 6.4 0.00 0.00 0.00 70 1015.9
20260507133005 12 341 0.0 6.4 0.00 0.00 0.00 70 1015.8
20260507132004 12 343 3.2 6.4 0.00 0.00 0.00 69 1015.5
20260507131004 12 348 1.6 3.2 0.00 0.00 0.00 67 1015.7
20260507130004 12 339 3.2 6.4 0.00 0.00 0.00 69 1015.7
20260507125004 12 345 3.2 6.4 0.00 0.00 0.00 68 1015.5
20260507124005 12 341 1.6 6.4 0.00 0.00 0.00 69 1015.8
20260507123004 12 346 1.6 6.4 0.00 0.00 0.00 69 1015.7
20260507122005 12 359 3.2 6.4 0.00 0.00 0.00 71 1015.6
20260507120005 12 356 1.6 6.4 0.00 0.00 0.00 71 1015.9
20260507115004 12 347 3.2 6.4 0.00 0.00 0.00 71 1015.7
20260507114004 12 355 3.2 6.4 0.00 0.00 0.00 72 1015.8
20260507113005 12 349 3.2 6.4 0.00 0.00 0.00 72 1015.6
20260507112004 12 345 1.6 6.4 0.00 0.00 0.00 71 1015.8
20260507111004 12 344 3.2 6.4 0.00 0.00 0.00 72 1015.8
20260507110005 12 339 1.6 6.4 0.00 0.00 0.00 72 1016.0
20260507105004 12 339 3.2 6.4 0.00 0.00 0.00 73 1015.8
20260507104004 12 340 3.2 6.4 0.00 0.00 0.00 72 1015.8
20260507103004 12 337 3.2 6.4 0.00 0.00 0.00 73 1016.0
20260507102006 12 344 3.2 6.4 0.00 0.00 0.00 73 1016.0
20260507101005 12 346 0.0 3.2 0.00 0.00 0.00 74 1016.0
20260507100005 12 4 1.6 3.2 0.00 0.00 0.00 74 1016.0
20260507095004 11 349 0.0 3.2 0.00 0.00 0.00 75 1015.8
20260507094005 11 338 3.2 3.2 0.00 0.00 0.00 75 1016.0
20260507093004 11 354 0.0 3.2 0.00 0.00 0.00 76 1016.1
20260507091004 11 340 1.6 6.4 0.00 0.00 0.00 77 1015.9
20260507090005 11 338 1.6 3.2 0.00 0.00 0.00 77 1016.0
20260507085004 11 344 1.6 6.4 0.00 0.00 0.00 78 1016.0
20260507084004 11 354 0.0 3.2 0.00 0.00 0.00 78 1015.7
20260507083005 11 338 0.0 3.2 0.00 0.00 0.00 79 1015.9
20260507082004 11 340 1.6 3.2 0.00 0.00 0.00 79 1015.6
20260507081004 11 347 0.0 3.2 0.00 0.00 0.00 80 1015.8
20260507080005 10 345 1.6 3.2 0.00 0.00 0.00 81 1015.7
20260507075004 10 342 0.0 3.2 0.00 0.00 0.00 82 1015.6
20260507074004 10 338 1.6 3.2 0.00 0.00 0.00 83 1015.7
20260507072004 10 340 1.6 3.2 0.00 0.00 0.00 84 1015.8
20260507070009 9 347 1.6 3.2 0.00 0.00 0.00 85 1015.5
20260507065004 9 338 3.2 3.2 0.00 0.00 0.00 85 1015.5
20260507063005 9 342 0.0 3.2 0.00 0.00 0.00 86 1015.6
20260507062005 8 340 0.0 3.2 0.00 0.00 0.00 87 1015.5
20260507061004 8 341 0.0 3.2 0.00 0.00 0.00 87 1015.3
20260507060004 8 345 0.0 3.2 0.00 0.00 0.00 88 1015.5
20260507054004 8 1 0.0 3.2 0.00 0.00 0.00 88 1015.3
20260507053007 8 354 0.0 3.2 0.00 0.00 0.00 88 1015.1
20260507052004 8 1 0.0 3.2 0.00 0.00 0.00 88 1015.3
20260507050005 8 0 0.0 0.0 0.00 0.00 0.00 88 1015.0
20260507045005 8 1 0.0 3.2 0.00 0.00 0.00 88 1015.1
20260507044004 8 341 0.0 3.2 0.00 0.00 0.00 88 1014.9
20260507043005 8 354 0.0 3.2 0.00 0.00 0.00 88 1014.9
20260507042004 8 346 0.0 3.2 0.00 0.00 0.00 87 1014.8
20260507040005 8 337 0.0 3.2 0.00 0.00 0.00 87 1014.7
20260507035004 8 350 0.0 3.2 0.00 0.00 0.00 87 1014.9
20260507034004 8 1 0.0 3.2 0.00 0.00 0.00 87 1014.7
20260507033004 8 345 0.0 3.2 0.00 0.00 0.00 87 1014.7
20260507032004 8 343 1.6 3.2 0.00 0.00 0.00 86 1014.7
20260507031004 8 347 3.2 3.2 0.00 0.00 0.00 86 1014.9
20260507030004 8 1 0.0 3.2 0.00 0.00 0.00 86 1014.6
20260507025004 8 337 0.0 3.2 0.00 0.00 0.00 85 1014.6
20260507023005 8 347 1.6 3.2 0.00 0.00 0.00 85 1014.6
20260507022005 8 346 1.6 3.2 0.00 0.00 0.00 85 1014.6
20260507021005 8 342 0.0 3.2 0.00 0.00 0.00 85 1014.2
20260507020005 8 338 0.0 3.2 0.00 0.00 0.00 85 1014.5
20260507015004 8 352 0.0 3.2 0.00 0.00 0.00 85 1014.4
20260507014005 8 341 0.0 3.2 0.00 0.00 0.00 85 1014.3
20260507013005 8 345 0.0 3.2 0.00 0.00 0.00 85 1014.3
20260507011004 8 342 0.0 3.2 0.00 0.00 0.00 85 1014.3
20260507010004 8 350 0.0 3.2 0.00 0.00 0.00 85 1014.3
20260507005005 8 339 0.0 3.2 0.00 0.00 0.00 85 1014.4
20260507004012 8 345 0.0 3.2 0.00 0.00 0.00 85 1014.2
20260507002004 8 342 0.0 3.2 0.00 0.00 0.00 85 1014.4
20260507001004 8 344 0.0 3.2 0.00 0.00 0.00 85 1014.4
20260506235004 9 0 0.0 0.0 0.00 0.00 0.00 84 1014.5
20260506234004 9 0 0.0 0.0 0.00 0.00 0.00 84 1014.3
20260506233005 9 0 0.0 0.0 0.00 0.00 0.00 84 1014.2
20260506232005 9 337 0.0 3.2 0.00 0.00 0.00 84 1014.5
20260506231004 9 0 0.0 0.0 0.00 0.00 0.00 84 1014.4